| time (UTC) | temp F | wind direction | speed knots | gust knots | rain 1hr in | rain 24hr in | rain mn in | humidity % | barometer mb |
| 20260505122045 | 57 | 0 | 0.0 | 0.0 | 0.00 | 0.04 | 0.00 | 90 | 1010.7 |
| 20260505120047 | 58 | 0 | 0.0 | 0.0 | 0.00 | 0.04 | 0.00 | 89 | 1010.7 |
| 20260505114046 | 58 | 0 | 0.0 | 0.0 | 0.00 | 0.04 | 0.00 | 88 | 1010.8 |
| 20260505113045 | 58 | 0 | 0.0 | 0.0 | 0.00 | 0.04 | 0.00 | 89 | 1010.9 |
| 20260505112046 | 58 | 0 | 0.0 | 0.0 | 0.00 | 0.04 | 0.00 | 90 | 1010.9 |
| 20260505111045 | 58 | 0 | 0.0 | 0.0 | 0.00 | 0.04 | 0.00 | 89 | 1010.9 |
| 20260505102041 | 58 | 0 | 0.0 | 0.0 | 0.00 | 0.06 | 0.00 | 90 | 1011.4 |
| 20260505101046 | 57 | 0 | 0.0 | 0.0 | 0.00 | 0.06 | 0.00 | 90 | 1011.4 |
| 20260505100042 | 57 | 0 | 0.0 | 0.0 | 0.00 | 0.06 | 0.00 | 90 | 1011.4 |
| 20260505095044 | 58 | 0 | 0.0 | 0.0 | 0.00 | 0.06 | 0.00 | 91 | 1011.3 |
| 20260505094043 | 58 | 0 | 0.0 | 0.0 | 0.00 | 0.06 | 0.00 | 90 | 1011.3 |
| 20260505093044 | 58 | 0 | 0.0 | 0.0 | 0.00 | 0.06 | 0.00 | 89 | 1011.3 |
| 20260505092043 | 58 | 0 | 0.0 | 0.0 | 0.00 | 0.06 | 0.00 | 89 | 1011.3 |
| 20260505091046 | 58 | 0 | 0.0 | 0.0 | 0.00 | 0.06 | 0.00 | 89 | 1011.3 |
| 20260505090044 | 58 | 0 | 0.0 | 0.0 | 0.00 | 0.06 | 0.00 | 90 | 1011.3 |
| 20260505084044 | 57 | 0 | 0.0 | 0.0 | 0.00 | 0.06 | 0.00 | 92 | 1011.5 |
| 20260505083046 | 57 | 0 | 0.0 | 0.0 | 0.00 | 0.06 | 0.00 | 93 | 1011.5 |
| 20260505082044 | 56 | 0 | 0.0 | 0.0 | 0.00 | 0.06 | 0.00 | 96 | 1011.6 |
| 20260505080052 | 55 | 0 | 0.0 | 0.0 | 0.00 | 0.06 | 0.00 | 10 | 1011.7 |
| 20260505074045 | 55 | 0 | 0.0 | 0.0 | 0.00 | 0.06 | 0.00 | 10 | 1011.8 |
| 20260505073043 | 54 | 0 | 0.0 | 0.0 | 0.00 | 0.06 | 0.00 | 10 | 1011.9 |
| 20260505072043 | 54 | 0 | 0.0 | 0.0 | 0.00 | 0.06 | 0.00 | 10 | 1011.9 |
| 20260505071044 | 53 | 0 | 0.0 | 0.0 | 0.00 | 0.06 | 0.00 | 10 | 1012.0 |
| 20260505065044 | 52 | 0 | 0.0 | 0.0 | 0.00 | 0.06 | 0.00 | 10 | 1012.2 |
| 20260505064038 | 52 | 0 | 0.0 | 0.0 | 0.00 | 0.06 | 0.00 | 10 | 1012.2 |
| 20260505063041 | 52 | 0 | 0.0 | 0.0 | 0.00 | 0.06 | 0.00 | 10 | 1012.2 |
| 20260505062037 | 52 | 0 | 0.0 | 0.0 | 0.00 | 0.06 | 0.00 | 10 | 1012.3 |
| 20260505061043 | 52 | 0 | 0.0 | 0.0 | 0.00 | 0.06 | 0.00 | 10 | 1012.3 |
| 20260505060042 | 52 | 0 | 0.0 | 0.0 | 0.00 | 0.06 | 0.00 | 10 | 1012.3 |
| 20260505055045 | 51 | 0 | 0.0 | 0.0 | 0.00 | 0.06 | 0.00 | 10 | 1012.3 |
| 20260505054045 | 51 | 0 | 0.0 | 0.0 | 0.00 | 0.06 | 0.00 | 10 | 1012.3 |
| 20260505053041 | 51 | 0 | 0.0 | 0.0 | 0.00 | 0.06 | 0.00 | 10 | 1012.2 |
| 20260505051043 | 51 | 0 | 0.0 | 0.0 | 0.00 | 0.06 | 0.00 | 10 | 1012.2 |
| 20260505041040 | 50 | 0 | 0.0 | 0.0 | 0.00 | 0.06 | 0.00 | 10 | 1012.4 |
| 20260505040041 | 50 | 0 | 0.0 | 0.0 | 0.00 | 0.06 | 0.00 | 10 | 1012.4 |
| 20260505035044 | 51 | 0 | 0.0 | 0.0 | 0.00 | 0.06 | 0.00 | 10 | 1012.4 |
| 20260505034042 | 51 | 0 | 0.0 | 0.0 | 0.00 | 0.06 | 0.00 | 10 | 1012.5 |
| 20260505033044 | 51 | 0 | 0.0 | 0.0 | 0.00 | 0.06 | 0.00 | 10 | 1012.6 |
| 20260505032042 | 51 | 0 | 0.0 | 0.0 | 0.00 | 0.06 | 0.00 | 10 | 1012.7 |
| 20260505031043 | 51 | 0 | 0.0 | 0.0 | 0.00 | 0.06 | 0.00 | 10 | 1012.9 |
| 20260505030042 | 51 | 0 | 0.0 | 0.0 | 0.00 | 0.06 | 0.00 | 10 | 1013.0 |
| 20260505025041 | 51 | 0 | 0.0 | 0.0 | 0.00 | 0.06 | 0.00 | 10 | 1013.0 |
| 20260505024043 | 51 | 0 | 0.0 | 0.0 | 0.00 | 0.06 | 0.00 | 10 | 1013.0 |
| 20260505023045 | 51 | 0 | 0.0 | 0.0 | 0.00 | 0.06 | 0.00 | 10 | 1013.0 |
| 20260505022044 | 51 | 0 | 0.0 | 0.0 | 0.00 | 0.06 | 0.00 | 10 | 1013.1 |
| 20260505021044 | 51 | 0 | 0.0 | 0.0 | 0.00 | 0.06 | 0.00 | 10 | 1013.1 |
| 20260505020044 | 51 | 0 | 0.0 | 0.0 | 0.00 | 0.06 | 0.00 | 10 | 1013.2 |
| 20260505015044 | 51 | 0 | 0.0 | 0.0 | 0.00 | 0.06 | 0.00 | 10 | 1013.2 |
| 20260505014043 | 51 | 0 | 0.0 | 0.0 | 0.00 | 0.06 | 0.00 | 10 | 1013.2 |
| 20260505013042 | 50 | 0 | 0.0 | 0.0 | 0.00 | 0.06 | 0.00 | 10 | 1013.2 |
| 20260505012042 | 50 | 0 | 0.0 | 0.0 | 0.00 | 0.06 | 0.00 | 10 | 1013.1 |
| 20260505011042 | 50 | 0 | 0.0 | 0.0 | 0.00 | 0.06 | 0.00 | 10 | 1013.1 |
| 20260505010044 | 50 | 0 | 0.0 | 0.0 | 0.00 | 0.06 | 0.00 | 10 | 1013.1 |
| 20260505004042 | 50 | 0 | 0.0 | 0.0 | 0.00 | 0.06 | 0.00 | 10 | 1013.2 |
| 20260505001043 | 51 | 0 | 0.0 | 0.0 | 0.00 | 0.06 | 0.00 | 10 | 1013.6 |
| 20260504235046 | 51 | 0 | 0.0 | 0.0 | 0.00 | 0.06 | 0.00 | 10 | 1013.7 |
| 20260504234046 | 51 | 0 | 0.0 | 0.0 | 0.00 | 0.06 | 0.00 | 10 | 1013.7 |
| 20260504233044 | 51 | 0 | 0.0 | 0.0 | 0.00 | 0.06 | 0.00 | 10 | 1013.9 |
| 20260504232046 | 52 | 0 | 0.0 | 0.0 | 0.00 | 0.06 | 0.00 | 10 | 1014.0 |
| 20260504231045 | 52 | 0 | 0.0 | 0.0 | 0.00 | 0.06 | 0.00 | 10 | 1014.0 |
| 20260504225044 | 51 | 0 | 0.0 | 0.0 | 0.00 | 0.06 | 0.00 | 10 | 1014.2 |
| 20260504223043 | 52 | 0 | 0.0 | 0.0 | 0.00 | 0.06 | 0.00 | 10 | 1014.2 |
| 20260504222047 | 52 | 0 | 0.0 | 0.0 | 0.00 | 0.06 | 0.00 | 10 | 1014.3 |
| 20260504221046 | 52 | 0 | 0.0 | 0.0 | 0.00 | 0.06 | 0.00 | 10 | 1014.5 |
| 20260504220045 | 52 | 0 | 0.0 | 0.0 | 0.00 | 0.06 | 0.00 | 10 | 1014.5 |
| 20260504215045 | 53 | 0 | 0.0 | 0.0 | 0.00 | 0.06 | 0.06 | 10 | 1014.5 |
| 20260504214049 | 53 | 0 | 0.0 | 0.0 | 0.00 | 0.06 | 0.06 | 10 | 1014.5 |
| 20260504213045 | 53 | 0 | 0.0 | 0.0 | 0.00 | 0.06 | 0.06 | 10 | 1014.7 |
| 20260504211045 | 53 | 0 | 0.0 | 0.0 | 0.00 | 0.06 | 0.06 | 10 | 1014.7 |
| 20260504210048 | 54 | 0 | 0.0 | 0.0 | 0.00 | 0.06 | 0.06 | 10 | 1014.8 |
| 20260504205046 | 54 | 0 | 0.0 | 0.0 | 0.00 | 0.06 | 0.06 | 99 | 1014.8 |
| 20260504204047 | 54 | 0 | 0.0 | 0.0 | 0.00 | 0.06 | 0.06 | 99 | 1014.9 |
| 20260504203049 | 54 | 0 | 0.0 | 0.0 | 0.00 | 0.06 | 0.06 | 99 | 1014.9 |
| 20260504201051 | 55 | 0 | 0.0 | 0.0 | 0.00 | 0.06 | 0.06 | 98 | 1014.9 |
| 20260504200050 | 55 | 0 | 0.0 | 0.0 | 0.00 | 0.06 | 0.06 | 98 | 1014.9 |
| 20260504195048 | 55 | 0 | 0.0 | 0.0 | 0.00 | 0.06 | 0.06 | 97 | 1014.8 |
| 20260504194047 | 55 | 0 | 0.0 | 0.0 | 0.00 | 0.06 | 0.06 | 96 | 1014.7 |
| 20260504193043 | 55 | 0 | 0.0 | 0.0 | 0.00 | 0.06 | 0.06 | 95 | 1014.7 |
| 20260504192045 | 55 | 0 | 0.0 | 0.0 | 0.00 | 0.06 | 0.06 | 94 | 1014.5 |
| 20260504191049 | 55 | 0 | 0.0 | 0.0 | 0.00 | 0.06 | 0.06 | 93 | 1014.4 |
| 20260504190047 | 55 | 0 | 0.0 | 0.0 | 0.00 | 0.06 | 0.06 | 94 | 1014.4 |
| 20260504185048 | 55 | 0 | 0.0 | 0.0 | 0.00 | 0.06 | 0.06 | 94 | 1014.4 |
| 20260504184043 | 56 | 0 | 0.0 | 0.0 | 0.00 | 0.06 | 0.06 | 92 | 1014.3 |
| 20260504183046 | 57 | 0 | 0.0 | 0.0 | 0.00 | 0.06 | 0.06 | 93 | 1014.2 |
| 20260504181047 | 57 | 0 | 0.0 | 0.0 | 0.00 | 0.06 | 0.06 | 93 | 1014.2 |
| 20260504180046 | 57 | 0 | 0.0 | 0.0 | 0.00 | 0.06 | 0.06 | 94 | 1014.3 |
| 20260504175046 | 57 | 0 | 0.0 | 0.0 | 0.00 | 0.06 | 0.06 | 94 | 1014.4 |
| 20260504174049 | 57 | 0 | 0.0 | 0.0 | 0.00 | 0.06 | 0.06 | 93 | 1014.4 |
| 20260504173046 | 57 | 0 | 0.0 | 0.0 | 0.00 | 0.06 | 0.06 | 91 | 1014.5 |
| 20260504172045 | 58 | 0 | 0.0 | 0.0 | 0.00 | 0.06 | 0.06 | 90 | 1014.5 |
| 20260504171045 | 58 | 0 | 0.0 | 0.0 | 0.00 | 0.06 | 0.06 | 89 | 1014.5 |
| 20260504151045 | 59 | 0 | 0.0 | 0.0 | 0.02 | 0.06 | 0.06 | 90 | 1014.8 |